FLOCK 4S-15 (47521 NORAD) Tracking and Keplerian Element Data
This shows tracking and keplerian element data for the satellite.
Feedback or suggestion? Click here.
Element | Value |
Catalog | 47521 |
Name | FLOCK 4S-15 |
Epoch Orbit | 1260 |
Epoch Day | 99.59205876 |
Epoch Year | 2021 |
RAAN | 161.9954 |
Inclination | 97.5035 |
Eccentricity | 0.0008411 |
Argument of Perigee | 2.4576 |
Mean Anonmoly | 357.6694 |
Mean Motion | 15.11959932 |
Decay Rate | 2.831E-05 |
L1 | 1 47521U 21006DM 21099.59205876 .00002831 00000-0 16871-3 0 9991 |
L2 | 2 47521 97.5035 161.9954 0008411 2.4576 357.6694 15.11959932 12607 |
Live tracking and technical data element details for FLOCK 4S-15 (NORAD 47521). FLOCK 4S-15 can be tracked NOW for your location showing map with azimuth and elevation plus other details from your city location.
Track the satellite on the map from your city or location and see movement details for azimuth, elevation, latitude, longitude, range, height, and movement on the map or in text.
IsCatalogInMostPopularTable: catalog: 47521, numindb: 16
Update: records affected: 1
GetName: 47521 FLOCK 4S-15
Hit Count: updated at: Sat, 10 Apr 2021 19:23:53 GMT